Back to catalog

COSMOS 397 DEB

AliveLEO
NORAD 5012·DEBRIS·🇷🇺 Russia

Launched Feb 25, 1971 from Baikonur Cosmodrome

Loading…

Next Passes

TLE

Source: Space-Track
1 05012U 71015F   26229.89449555  .00004591  00000-0  62821-3 0  9993
2 05012  65.7316 162.6736 0337102 172.8276 187.7832 14.47238440709412

Track COSMOS 397 DEB in real time with AllMySat

Download on the App Store